This is the latest recevied weather packets stored in our database for station/object N3SBK. If no packets are shown the sender has not sent any weather packets the latest 10 day(s).
| Time | Temp. | Humidity | Pressure | Rain* | Wind** | Luminosity | Snow |
|---|---|---|---|---|---|---|---|
| 1787855606 | 29.44° C | 56% | 1006.5 hPa | 0 mm | - | 618 W/m² | - |
| 1787855296 | 29.44° C | 54% | 1006.5 hPa | 0 mm | - | 643 W/m² | - |
| 1787854992 | 29.44° C | 56% | 1006.6 hPa | 0 mm | - | 667 W/m² | - |
| 1787854687 | 29.44° C | 56% | 1006.5 hPa | 0 mm | - | 667 W/m² | - |
| 1787854387 | 29.44° C | 56% | 1006.8 hPa | 0 mm | - | 661 W/m² | - |
| 1787854087 | 28.89° C | 54% | 1006.7 hPa | 0 mm | - | 655 W/m² | - |
| 1787853786 | 28.89° C | 56% | 1006.8 hPa | 0 mm | - | 651 W/m² | - |
| 1787853485 | 28.33° C | 57% | 1006.8 hPa | 0 mm | - | 651 W/m² | - |
| 1787853180 | 28.33° C | 57% | 1006.8 hPa | 0 mm | - | 651 W/m² | - |
| 1787852880 | 27.78° C | 57% | 1006.8 hPa | 0 mm | - | 637 W/m² | - |
| 1787852580 | 27.78° C | 57% | 1006.8 hPa | 0 mm | - | 688 W/m² | - |
| 1787852274 | 27.22° C | 59% | 1006.7 hPa | 0 mm | - | 622 W/m² | - |
| 1787851974 | 27.78° C | 59% | 1006.9 hPa | 0 mm | - | 164 W/m² | - |
| 1787851673 | 28.33° C | 59% | 1007.1 hPa | 0 mm | - | 192 W/m² | - |
| 1787851372 | 28.33° C | 60% | 1006.9 hPa | 0 mm | - | 599 W/m² | - |
| 1787851068 | 27.78° C | 64% | 1007.1 hPa | 0 mm | - | 685 W/m² | - |
| 1787850764 | 27.78° C | 61% | 1007.2 hPa | 0 mm | - | 643 W/m² | - |
| 1787850459 | 27.78° C | 59% | 1007 hPa | 0 mm | - | 690 W/m² | - |
| 1787850154 | 27.22° C | 63% | 1007.2 hPa | 0 mm | - | 623 W/m² | - |
| 1787849854 | 27.78° C | 60% | 1007.1 hPa | 0 mm | - | 232 W/m² | - |
| 1787849549 | 27.78° C | 61% | 1007.2 hPa | 0 mm | - | 674 W/m² | - |
| 1787849248 | 27.78° C | 59% | 1007.2 hPa | 0 mm | - | 663 W/m² | - |
| 1787848947 | 27.78° C | 59% | 1007.1 hPa | 0 mm | - | 663 W/m² | - |
| 1787848642 | 27.78° C | 61% | 1006.9 hPa | 0 mm | - | 389 W/m² | - |
| 1787848338 | 27.78° C | 60% | 1007.4 hPa | 0 mm | - | 641 W/m² | - |
* Rain latest hour (hover to see other rain measurements)
** Current wind speed in m/s (hover to see current wind gust speed)